Wind_Speed
32 33 35 36 37 37 38 39 37 36 37 36 34 31 27 24 24 23 25 27 25 25 27 27 27 25 25 24 24 24 23 22 22 21 20 20 19 18 17 15 14 14 13
35 37 38 38 39 39 38 38 37 35 35 34 32 28 25 23 21 20 21 23 23 24 25 25 26 25 25 25 25 26 25 25 24 23 22 22 21 20 19 17 16 15 14
37 38 39 39 38 38 37 37 37 35 34 32 31 28 26 24 22 22 22 22 24 25 25 25 25 26 26 27 27 28 27 27 27 26 25 24 23 22 21 19 18 17 16
36 36 35 35 36 36 37 37 36 36 36 34 32 30 28 27 26 26 26 26 26 26 26 27 27 28 28 28 28 30 31 30 29 29 28 27 26 25 24 22 20 19 18
30 32 31 32 33 34 35 36 37 37 37 37 36 34 32 31 30 29 29 28 29 29 29 30 30 30 30 30 31 31 33 33 33 32 31 30 29 28 26 25 23 21 20
26 27 28 31 33 34 35 36 38 39 40 40 39 39 38 37 36 35 34 34 35 35 36 35 34 34 35 34 34 34 35 35 35 34 34 33 32 30 29 27 26 24 22
28 30 32 33 35 36 38 39 41 42 42 42 42 42 42 42 42 42 42 42 42 42 41 41 40 39 38 38 37 38 38 38 38 38 37 36 35 33 31 30 28 26 25
32 34 34 36 37 38 40 41 42 44 44 45 46 46 46 47 47 47 47 47 48 48 47 47 46 45 44 42 42 42 42 42 41 41 41 40 38 37 35 32 30 29 27
34 36 37 38 39 41 42 43 45 46 47 48 48 49 50 51 51 52 52 53 53 53 53 53 52 51 50 49 48 48 47 46 45 44 44 43 42 40 38 36 33 31 29
36 38 39 41 43 44 45 46 47 48 48 49 50 51 53 54 55 56 57 57 58 58 58 58 58 57 56 56 55 54 53 52 50 49 48 47 46 44 42 40 36 34 31
39 41 43 45 46 47 48 49 50 50 50 51 51 52 53 54 54 55 56 57 59 60 61 62 62 62 62 61 60 59 58 57 56 55 53 51 50 48 46 43 40 37 34
43 45 47 48 50 51 52 53 54 55 55 55 54 53 53 53 52 51 51 52 53 56 59 62 63 64 65 65 65 64 63 62 60 59 58 56 54 52 50 47 43 40 37
47 49 50 52 54 55 56 57 57 58 58 58 57 55 54 52 50 49 48 47 47 48 50 54 59 62 65 66 67 68 68 67 65 63 61 59 57 55 53 50 47 43 40
50 52 53 55 56 57 58 59 60 61 61 61 59 57 54 52 49 47 45 43 42 41 41 44 48 53 58 63 67 69 70 70 70 68 65 63 60 57 55 53 50 47 43
52 54 55 56 57 58 60 60 61 61 61 60 59 57 54 51 49 46 44 42 40 38 37 37 37 40 44 49 55 62 67 70 71 71 69 66 63 60 57 55 53 50 46
53 54 56 56 58 59 60 60 60 60 60 59 58 56 54 52 49 46 44 42 40 38 36 35 34 35 35 38 41 46 53 60 65 69 71 69 66 62 59 56 54 51 48
55 56 56 57 58 59 60 60 60 59 59 57 56 55 53 51 49 46 44 43 41 40 38 36 35 33 32 32 33 36 40 44 50 57 63 67 67 64 61 58 55 51 48
56 56 56 57 59 60 60 59 58 58 57 57 55 53 51 50 48 47 44 42 42 40 39 37 36 35 33 32 31 31 33 36 41 46 52 58 62 64 63 60 57 53 49
56 56 57 58 59 59 59 57 57 57 57 56 54 52 50 48 47 45 44 42 41 40 39 38 38 36 34 33 32 30 29 30 33 37 42 47 53 58 61 60 58 55 51
56 57 57 58 59 58 57 57 57 57 56 54 52 50 48 46 44 42 41 40 39 38 38 38 38 37 36 34 32 31 29 28 29 31 35 40 45 50 56 58 57 55 52
57 57 58 58 57 57 57 57 57 56 54 51 48 46 44 42 40 38 37 37 37 37 37 36 36 36 36 35 33 32 30 28 28 28 30 34 38 43 50 54 55 54 53
56 57 57 57 56 57 57 57 55 53 50 48 45 42 38 36 35 34 33 33 33 34 35 34 34 34 34 34 33 31 30 29 28 28 28 30 33 38 44 49 51 52 52
56 56 56 56 56 56 56 55 53 50 47 44 41 38 35 33 32 30 29 29 30 31 32 32 32 32 32 32 31 31 29 28 28 27 29 29 31 34 39 44 48 50 51
55 55 55 55 54 54 53 53 52 48 45 42 39 36 33 30 28 25 25 25 25 26 27 28 29 29 29 29 29 28 28 27 27 27 28 29 29 31 35 41 45 47 49
54 54 55 54 53 53 52 53 51 47 44 41 39 34 31 27 23 21 20 19 20 20 21 23 25 26 26 26 26 26 26 25 25 25 26 27 29 30 34 40 44 46 48
53 53 53 53 52 52 52 52 50 47 43 40 37 33 28 24 20 18 15 14 14 16 18 20 22 23 24 24 23 23 23 24 23 22 23 25 28 31 34 38 42 45 47
Wind_Direction
284 287 290 292 293 293 294 296 297 301 302 304 308 302 293 279 272 264 258 258 260 261 261 263 262 263 263 262 258 253 251 250 249 249 250 253 256 259 262 265 269 274 281
284 287 288 289 290 291 293 298 301 301 304 307 311 306 296 289 286 274 270 272 266 266 266 263 262 260 260 259 258 254 251 249 248 248 249 252 253 256 259 261 265 270 277
286 285 287 288 288 290 292 296 299 302 305 307 309 306 303 298 294 287 280 275 268 269 268 263 262 261 260 260 257 254 251 249 246 246 247 249 252 255 257 259 263 269 275
287 288 289 290 290 292 293 295 297 298 300 302 303 302 301 299 294 289 284 277 274 271 268 266 266 262 260 259 257 254 250 248 246 245 246 248 251 254 258 259 262 266 271
290 292 292 294 294 294 294 295 296 297 298 298 297 297 295 291 288 285 282 278 276 272 269 267 265 264 261 260 258 255 251 249 246 245 246 247 249 251 255 259 262 264 267
300 301 299 298 298 297 296 296 296 296 295 294 293 293 291 288 284 281 277 275 273 272 269 268 266 264 261 261 259 256 253 250 246 245 246 246 247 248 251 256 260 263 265
304 304 303 302 300 298 297 297 296 295 294 293 291 289 287 284 282 278 275 272 270 268 267 266 264 263 261 260 258 256 253 250 247 246 246 246 246 247 249 252 256 260 263
305 304 304 303 301 300 299 298 297 296 295 293 291 289 286 283 280 278 275 272 269 267 265 263 262 260 259 258 256 254 252 249 247 247 247 247 246 246 247 249 252 256 260
306 305 305 304 303 302 300 299 297 296 294 292 290 288 285 283 280 277 274 271 268 266 264 262 260 258 256 255 253 252 251 249 247 247 247 247 247 247 246 247 249 251 255
309 308 308 307 306 305 303 301 299 297 295 293 291 289 286 283 280 277 274 272 269 266 264 261 259 257 255 253 252 250 249 248 247 246 245 246 246 247 247 246 246 247 250
313 313 311 310 309 308 307 306 304 302 300 297 295 292 289 287 284 280 276 273 269 266 263 261 258 256 254 252 251 249 248 246 245 245 245 245 245 245 246 245 244 244 246
316 315 315 314 314 313 312 311 309 307 305 303 300 298 295 292 289 285 281 277 271 267 263 260 257 255 253 251 250 248 247 246 244 243 243 243 243 243 244 244 244 243 244
320 319 319 318 317 316 314 312 311 309 308 306 304 301 298 295 291 287 283 279 274 269 265 261 257 255 252 250 249 247 245 244 244 243 242 241 242 242 242 242 242 242 242
323 322 321 319 317 316 314 312 311 310 308 306 305 302 299 295 292 288 283 279 275 272 269 265 261 257 254 251 249 247 245 244 242 242 241 240 240 240 240 240 240 240 240
324 322 320 318 317 315 314 312 311 310 308 306 304 301 298 295 291 287 283 279 275 272 269 267 264 260 257 254 252 249 246 244 242 241 240 239 238 238 237 237 237 237 237
324 322 320 318 317 316 315 313 312 310 308 305 303 301 297 294 290 286 281 277 273 270 267 264 263 262 260 258 255 252 249 247 244 242 240 238 236 235 235 235 234 233 234
324 323 321 320 319 318 316 314 312 310 308 306 304 301 297 293 289 285 280 276 270 267 263 260 259 259 260 260 259 255 251 250 247 244 240 238 235 233 232 232 231 231 231
326 325 323 322 321 319 318 316 315 312 309 307 304 300 297 294 289 284 279 274 269 265 260 257 256 255 256 258 258 258 255 251 248 245 241 238 235 233 231 229 228 228 228
328 327 326 325 323 322 320 319 316 314 311 308 304 300 297 294 289 283 278 273 268 263 258 255 253 252 252 253 253 255 255 253 250 246 241 238 235 232 230 227 226 225 224
331 330 329 327 326 324 323 321 319 316 314 310 306 302 298 294 290 284 277 271 266 261 257 254 251 249 249 250 251 251 253 252 250 246 242 238 234 231 228 226 223 222 221
333 332 331 330 329 327 326 324 322 320 317 313 310 306 301 295 291 286 278 269 263 260 256 253 249 248 246 247 248 249 251 250 248 245 241 237 232 229 226 223 221 219 218
335 334 334 333 332 331 330 329 327 325 322 318 315 311 306 300 293 287 279 269 262 257 253 251 248 246 244 244 244 245 247 247 246 243 239 235 231 227 222 219 217 215 215
337 337 337 336 336 335 335 334 333 331 328 325 321 318 312 304 297 289 280 270 263 256 251 247 244 241 239 239 241 242 243 244 243 242 238 235 232 225 219 215 213 212 211
339 339 340 339 339 338 338 338 337 336 334 332 327 324 319 311 301 291 283 275 264 255 248 243 239 235 233 236 238 237 238 240 240 239 236 233 229 221 213 209 207 206 206
342 342 342 342 343 342 342 341 341 339 338 336 334 330 326 320 310 299 289 277 261 250 241 236 232 229 230 232 233 233 234 234 237 236 233 230 223 215 208 204 203 201 200
343 344 345 345 345 346 346 346 345 345 343 341 339 338 335 330 322 311 297 277 256 243 235 229 226 224 225 227 227 228 228 230 232 232 229 226 219 208 201 198 198 197 196
Height
5855 5852 5849 5847 5844 5841 5838 5834 5830 5827 5824 5820 5816 5811 5807 5806 5807 5807 5808 5810 5811 5813 5814 5815 5816 5817 5819 5819 5820 5821 5823 5824 5826 5827 5828 5830 5831 5832 5833 5833 5834 5834 5834
5849 5846 5843 5840 5837 5833 5830 5827 5823 5819 5817 5814 5810 5806 5803 5803 5803 5803 5803 5804 5806 5807 5807 5808 5809 5810 5811 5812 5813 5815 5816 5818 5820 5821 5822 5824 5826 5827 5828 5829 5829 5830 5829
5841 5838 5835 5832 5829 5826 5823 5820 5816 5813 5811 5809 5806 5802 5800 5800 5799 5798 5798 5798 5800 5800 5801 5801 5802 5803 5804 5805 5806 5808 5809 5811 5813 5815 5816 5818 5820 5821 5822 5823 5824 5825 5825
5833 5830 5827 5824 5822 5819 5816 5813 5809 5807 5805 5803 5801 5798 5797 5795 5795 5793 5793 5793 5794 5794 5794 5794 5795 5795 5796 5797 5798 5800 5802 5803 5805 5808 5809 5811 5813 5815 5816 5817 5818 5819 5820
5826 5823 5820 5818 5815 5812 5809 5805 5802 5800 5797 5795 5794 5792 5791 5790 5788 5787 5786 5786 5787 5787 5787 5787 5787 5788 5788 5789 5790 5792 5793 5795 5797 5799 5802 5804 5806 5807 5809 5810 5812 5813 5814
5820 5817 5814 5811 5808 5805 5802 5798 5795 5792 5790 5787 5785 5783 5781 5781 5780 5779 5778 5778 5777 5778 5778 5778 5778 5778 5779 5780 5781 5782 5784 5786 5788 5790 5793 5796 5798 5800 5802 5803 5804 5806 5808
5815 5812 5808 5805 5801 5797 5794 5790 5786 5783 5780 5777 5774 5772 5770 5769 5768 5767 5767 5766 5766 5766 5766 5767 5767 5768 5768 5769 5770 5772 5774 5776 5778 5780 5783 5786 5789 5792 5794 5796 5798 5799 5800
5809 5805 5801 5797 5793 5789 5784 5780 5776 5772 5768 5764 5761 5758 5756 5754 5753 5752 5751 5751 5751 5751 5752 5753 5754 5755 5756 5757 5759 5761 5762 5764 5767 5770 5773 5776 5779 5782 5785 5788 5790 5792 5793
5802 5797 5793 5788 5783 5779 5774 5769 5764 5760 5755 5751 5747 5743 5740 5738 5736 5735 5734 5733 5733 5734 5734 5736 5737 5739 5741 5743 5745 5747 5750 5752 5755 5758 5761 5764 5767 5771 5774 5778 5781 5784 5785
5794 5788 5783 5777 5772 5766 5761 5756 5750 5746 5741 5736 5731 5727 5723 5720 5717 5716 5714 5713 5713 5714 5715 5716 5718 5720 5723 5725 5728 5731 5734 5737 5741 5744 5748 5751 5755 5759 5763 5767 5770 5774 5777
5784 5778 5772 5766 5760 5753 5746 5740 5734 5729 5724 5719 5714 5710 5705 5701 5698 5695 5693 5692 5691 5692 5693 5694 5696 5699 5702 5706 5709 5713 5716 5720 5724 5729 5733 5737 5741 5745 5750 5754 5759 5763 5767
5774 5767 5760 5752 5745 5737 5730 5723 5716 5710 5704 5699 5695 5690 5685 5681 5678 5674 5672 5670 5669 5669 5670 5671 5674 5676 5680 5684 5688 5692 5696 5701 5706 5711 5716 5721 5726 5731 5736 5741 5746 5751 5756
5762 5754 5746 5738 5730 5722 5714 5707 5699 5692 5685 5679 5674 5670 5665 5661 5658 5655 5653 5651 5649 5649 5649 5650 5651 5654 5657 5660 5665 5669 5675 5680 5686 5692 5698 5704 5710 5716 5721 5727 5733 5739 5744
5750 5742 5733 5725 5717 5708 5699 5691 5682 5675 5667 5660 5655 5650 5645 5641 5638 5636 5634 5633 5632 5631 5631 5631 5632 5633 5635 5638 5642 5647 5652 5658 5665 5672 5679 5686 5692 5699 5706 5712 5719 5725 5731
5739 5731 5722 5713 5704 5694 5685 5676 5667 5658 5650 5643 5636 5631 5626 5623 5620 5617 5616 5615 5615 5615 5615 5615 5616 5616 5617 5619 5621 5625 5630 5636 5642 5650 5658 5666 5674 5682 5689 5697 5704 5711 5718
5730 5720 5711 5701 5691 5681 5671 5661 5652 5643 5634 5626 5619 5613 5608 5604 5601 5599 5598 5598 5598 5599 5599 5600 5601 5602 5603 5604 5605 5607 5611 5616 5622 5629 5637 5646 5655 5664 5673 5681 5689 5697 5705
5719 5709 5699 5688 5678 5667 5656 5646 5636 5627 5617 5609 5601 5595 5590 5586 5583 5581 5580 5581 5581 5583 5584 5586 5587 5589 5590 5591 5593 5594 5597 5600 5604 5610 5617 5626 5636 5646 5656 5665 5674 5683 5692
5708 5698 5687 5676 5664 5653 5641 5631 5621 5611 5601 5593 5585 5578 5572 5568 5565 5563 5563 5563 5564 5566 5568 5571 5573 5576 5578 5580 5582 5583 5585 5588 5591 5594 5600 5609 5618 5628 5638 5649 5659 5669 5679
5697 5686 5675 5663 5651 5639 5627 5617 5606 5596 5586 5576 5568 5561 5555 5550 5547 5545 5545 5546 5547 5550 5552 5556 5559 5563 5566 5568 5571 5573 5575 5577 5579 5582 5587 5594 5602 5612 5623 5634 5645 5656 5666
5687 5675 5664 5652 5639 5627 5615 5604 5592 5581 5570 5560 5552 5544 5538 5533 5530 5528 5528 5529 5531 5533 5537 5541 5545 5549 5553 5556 5559 5562 5565 5567 5570 5572 5576 5582 5589 5596 5606 5618 5630 5642 5653
5677 5665 5653 5640 5628 5615 5603 5591 5578 5567 5555 5545 5536 5529 5522 5517 5514 5513 5512 5513 5515 5518 5522 5526 5531 5535 5540 5544 5548 5551 5555 5558 5560 5563 5566 5571 5577 5584 5594 5605 5617 5629 5640
5668 5656 5644 5631 5618 5604 5591 5578 5566 5554 5542 5532 5523 5515 5509 5504 5501 5499 5499 5499 5501 5504 5508 5513 5518 5523 5528 5532 5537 5541 5545 5548 5551 5554 5557 5562 5567 5573 5582 5593 5604 5616 5627
5660 5648 5635 5623 5609 5595 5581 5568 5556 5543 5532 5522 5513 5505 5498 5493 5490 5487 5487 5487 5489 5492 5496 5500 5506 5511 5516 5521 5526 5531 5535 5539 5542 5545 5549 5553 5558 5564 5572 5582 5593 5604 5616
5653 5641 5628 5615 5602 5588 5574 5560 5547 5535 5524 5514 5505 5497 5490 5484 5480 5477 5476 5477 5478 5481 5485 5490 5495 5501 5507 5512 5517 5522 5526 5530 5534 5537 5540 5545 5550 5556 5563 5573 5583 5595 5608
5647 5634 5621 5609 5595 5582 5569 5555 5541 5529 5518 5508 5499 5490 5482 5477 5472 5470 5468 5468 5470 5473 5477 5481 5487 5493 5499 5504 5509 5514 5519 5523 5526 5530 5533 5537 5543 5549 5556 5565 5576 5587 5600
5641 5629 5617 5604 5591 5578 5564 5551 5537 5524 5513 5503 5494 5485 5478 5472 5467 5464 5463 5462 5464 5467 5470 5475 5481 5486 5492 5497 5502 5507 5512 5516 5520 5524 5527 5531 5536 5542 5550 5559 5569 5580 5593